TimeCST,TemperatureF,Dew PointF,Humidity,Sea Level PressureIn,VisibilityMPH,Wind Direction,Wind SpeedMPH,Gust SpeedMPH,PrecipitationIn,Events,Conditions,WindDirDegrees,DateUTC
12:53 AM,19.0,12.0,74,30.23,8.0,NW,3.5,-,0.00,Snow,Light Snow,320,2012-11-24 06:53:00
1:53 AM,19.0,12.0,74,30.24,6.0,NW,8.1,-,0.00,Snow,Light Snow,320,2012-11-24 07:53:00
2:53 AM,19.0,12.0,74,30.24,7.0,NNW,8.1,16.1,0.00,Snow,Light Snow,330,2012-11-24 08:53:00
3:53 AM,19.0,10.9,71,30.23,10.0,NNW,10.4,-,0.00,,Overcast,330,2012-11-24 09:53:00
4:53 AM,19.0,10.9,71,30.24,10.0,NW,9.2,-,N/A,,Overcast,310,2012-11-24 10:53:00
5:53 AM,19.0,10.9,71,30.24,10.0,NW,10.4,-,N/A,,Overcast,310,2012-11-24 11:53:00
6:53 AM,18.0,10.9,74,30.25,10.0,Variable,3.5,-,N/A,,Overcast,0,2012-11-24 12:53:00
7:53 AM,18.0,10.0,71,30.25,10.0,NW,8.1,-,0.00,,Overcast,310,2012-11-24 13:53:00
8:53 AM,19.0,10.9,71,30.24,10.0,NW,4.6,-,N/A,,Overcast,320,2012-11-24 14:53:00
9:53 AM,19.0,10.9,71,30.23,10.0,Variable,4.6,-,N/A,,Overcast,0,2012-11-24 15:53:00
10:53 AM,19.9,12.0,71,30.21,10.0,West,4.6,-,N/A,,Overcast,270,2012-11-24 16:53:00
11:48 AM,21.2,12.2,68,30.09,10.0,West,3.5,-,N/A,,Partly Cloudy,280,2012-11-24 17:48:00
11:53 AM,21.9,12.0,66,30.17,10.0,Calm,Calm,-,N/A,,Partly Cloudy,0,2012-11-24 17:53:00
12:53 PM,21.9,12.0,66,30.14,10.0,Calm,Calm,-,N/A,,Clear,0,2012-11-24 18:53:00
1:53 PM,23.0,10.9,60,30.12,10.0,South,4.6,-,N/A,,Clear,190,2012-11-24 19:53:00
2:53 PM,24.1,10.0,55,30.09,10.0,SSW,5.8,-,N/A,,Clear,210,2012-11-24 20:53:00
3:53 PM,23.0,10.9,60,30.06,10.0,South,5.8,-,N/A,,Scattered Clouds,170,2012-11-24 21:53:00
4:53 PM,23.0,10.9,60,30.05,10.0,South,3.5,-,N/A,,Mostly Cloudy,190,2012-11-24 22:53:00
5:53 PM,23.0,10.9,60,30.01,10.0,SSE,3.5,-,N/A,,Overcast,150,2012-11-24 23:53:00
6:53 PM,23.0,10.9,60,29.99,10.0,South,4.6,-,N/A,,Overcast,170,2012-11-25 00:53:00
7:53 PM,23.0,12.0,63,29.96,10.0,South,5.8,-,N/A,,Overcast,190,2012-11-25 01:53:00
8:53 PM,21.9,12.9,68,29.94,4.0,South,8.1,-,0.00,Snow,Light Snow,180,2012-11-25 02:53:00
9:01 PM,21.2,14.0,74,29.85,2.5,South,8.1,-,0.00,Snow,Light Snow,190,2012-11-25 03:01:00
9:16 PM,21.2,15.8,80,29.85,1.5,South,5.8,-,0.00,Snow,Light Snow,180,2012-11-25 03:16:00
9:40 PM,21.2,17.6,86,29.85,1.0,SSW,3.5,-,0.01,Snow,Light Snow,210,2012-11-25 03:40:00
9:53 PM,21.0,18.0,88,29.94,1.0,SSW,3.5,-,0.02,Snow,Light Snow,200,2012-11-25 03:53:00
10:03 PM,21.2,17.6,86,29.84,1.5,South,4.6,-,0.00,Snow,Light Snow,180,2012-11-25 04:03:00
10:28 PM,21.2,17.6,86,29.84,1.0,SSW,5.8,-,0.02,Snow,Light Snow,200,2012-11-25 04:28:00
10:53 PM,21.0,18.0,88,29.90,1.0,South,6.9,-,0.03,Snow,Light Snow,180,2012-11-25 04:53:00
11:53 PM,21.0,19.0,92,29.87,0.8,South,5.8,-,0.04,Snow,Light Snow,190,2012-11-25 05:53:00